| time (UTC) | temp C | wind direction | speed KPH | gust KPH | rain 1hr cm | rain 24hr cm | rain mn cm | humidity % | barometer mb |
| 20260503184530 | 10 | 306 | 0.0 | 3.2 | 0.00 | 0.00 | 0.00 | 67 | 1018.6 |
| 20260503183036 | 11 | 310 | 0.0 | 0.0 | 0.00 | 0.00 | 0.00 | 65 | 1018.5 |
| 20260503181527 | 12 | 194 | 0.0 | 0.0 | 0.00 | 0.00 | 0.00 | 59 | 1018.4 |
| 20260503180030 | 13 | 194 | 0.0 | 0.0 | 0.00 | 0.00 | 0.00 | 55 | 1018.3 |
| 20260503174528 | 16 | 192 | 0.0 | 0.0 | 0.00 | 0.00 | 0.00 | 49 | 1018.2 |
| 20260503173017 | 19 | 192 | 0.0 | 0.0 | 0.00 | 0.00 | 0.00 | 43 | 1018.1 |
| 20260503171508 | 21 | 192 | 0.0 | 0.0 | 0.00 | 0.00 | 0.00 | 36 | 1018.2 |
| 20260503081515 | 18 | 173 | 3.2 | 9.7 | 0.00 | 0.00 | 0.00 | 39 | 1022.7 |
| 20260503071527 | 16 | 302 | 1.6 | 11.3 | 0.00 | 0.00 | 0.00 | 43 | 1022.8 |
| 20260503054519 | 11 | 333 | 1.6 | 9.7 | 0.00 | 0.00 | 0.00 | 61 | 1022.5 |
| 20260503053004 | 10 | 5 | 0.0 | 4.8 | 0.00 | 0.00 | 0.00 | 69 | 1022.5 |
| 20260503051508 | 7 | 329 | 0.0 | 3.2 | 0.00 | 0.00 | 0.00 | 77 | 1022.4 |
| 20260503050028 | 6 | 352 | 0.0 | 0.0 | 0.00 | 0.00 | 0.00 | 85 | 1022.4 |
| 20260503044517 | 4 | 9 | 0.0 | 0.0 | 0.00 | 0.00 | 0.00 | 87 | 1022.4 |
| 20260503043021 | 3 | 24 | 0.0 | 0.0 | 0.00 | 0.00 | 0.00 | 87 | 1022.3 |
| 20260503041509 | 2 | 352 | 0.0 | 1.6 | 0.00 | 0.00 | 0.00 | 88 | 1022.3 |
| 20260503040011 | 2 | 5 | 0.0 | 3.2 | 0.00 | 0.00 | 0.00 | 88 | 1022.1 |
| 20260503034527 | 2 | 328 | 1.6 | 1.6 | 0.00 | 0.00 | 0.00 | 87 | 1022.1 |
| 20260503033027 | 2 | 340 | 0.0 | 3.2 | 0.00 | 0.00 | 0.00 | 87 | 1022.0 |
| 20260503031527 | 2 | 341 | 1.6 | 3.2 | 0.00 | 0.00 | 0.00 | 87 | 1021.9 |
| 20260503030008 | 2 | 360 | 0.0 | 3.2 | 0.00 | 0.00 | 0.00 | 86 | 1022.0 |
| 20260503024511 | 2 | 328 | 0.0 | 0.0 | 0.00 | 0.00 | 0.00 | 86 | 1021.8 |
| 20260503023017 | 2 | 330 | 0.0 | 0.0 | 0.00 | 0.00 | 0.00 | 86 | 1021.7 |
| 20260503021520 | 2 | 322 | 0.0 | 0.0 | 0.00 | 0.00 | 0.00 | 85 | 1021.8 |
| 20260503020027 | 3 | 9 | 0.0 | 0.0 | 0.00 | 0.00 | 0.00 | 86 | 1021.8 |
| 20260503014509 | 3 | 331 | 0.0 | 0.0 | 0.00 | 0.00 | 0.00 | 85 | 1021.7 |
| 20260503013024 | 3 | 331 | 0.0 | 0.0 | 0.00 | 0.00 | 0.00 | 85 | 1021.8 |
| 20260503011522 | 3 | 331 | 0.0 | 0.0 | 0.00 | 0.00 | 0.00 | 85 | 1021.7 |
| 20260503010023 | 3 | 331 | 0.0 | 0.0 | 0.00 | 0.00 | 0.00 | 84 | 1021.7 |
| 20260503004532 | 3 | 331 | 0.0 | 0.0 | 0.00 | 0.00 | 0.00 | 83 | 1021.7 |
| 20260503003015 | 4 | 302 | 0.0 | 0.0 | 0.00 | 0.00 | 0.00 | 83 | 1021.6 |
| 20260503001516 | 4 | 327 | 0.0 | 0.0 | 0.00 | 0.00 | 0.00 | 82 | 1021.7 |
| 20260503000025 | 5 | 300 | 0.0 | 0.0 | 0.00 | 0.00 | 0.00 | 81 | 1021.7 |
| 20260502234524 | 5 | 334 | 0.0 | 3.2 | 0.00 | 0.00 | 0.00 | 81 | 1021.7 |
| 20260502233012 | 5 | 311 | 0.0 | 0.0 | 0.00 | 0.00 | 0.00 | 81 | 1021.7 |
| 20260502231512 | 6 | 311 | 0.0 | 0.0 | 0.00 | 0.00 | 0.00 | 79 | 1021.7 |
| 20260502230020 | 6 | 311 | 0.0 | 3.2 | 0.00 | 0.00 | 0.00 | 79 | 1021.7 |
| 20260502224523 | 6 | 311 | 0.0 | 3.2 | 0.00 | 0.00 | 0.00 | 78 | 1021.9 |
| 20260502223027 | 7 | 311 | 0.0 | 3.2 | 0.00 | 0.00 | 0.00 | 77 | 1021.9 |
| 20260502221514 | 7 | 303 | 0.0 | 3.2 | 0.00 | 0.00 | 0.00 | 77 | 1021.9 |
| 20260502220031 | 6 | 309 | 0.0 | 3.2 | 0.00 | 0.00 | 0.00 | 78 | 1021.9 |
| 20260502214522 | 6 | 321 | 0.0 | 3.2 | 0.00 | 0.00 | 0.00 | 81 | 1021.7 |
| 20260502213024 | 6 | 360 | 0.0 | 1.6 | 0.00 | 0.00 | 0.00 | 81 | 1021.6 |
| 20260502211540 | 6 | 317 | 0.0 | 0.0 | 0.00 | 0.00 | 0.00 | 80 | 1021.4 |
| 20260502210014 | 7 | 344 | 0.0 | 0.0 | 0.00 | 0.00 | 0.00 | 81 | 1021.3 |
| 20260502204522 | 7 | 337 | 0.0 | 0.0 | 0.00 | 0.00 | 0.00 | 80 | 1021.3 |
| 20260502203026 | 7 | 345 | 0.0 | 0.0 | 0.00 | 0.00 | 0.00 | 79 | 1021.2 |
| 20260502201507 | 7 | 342 | 0.0 | 0.0 | 0.00 | 0.00 | 0.00 | 79 | 1021.1 |
| 20260502200017 | 7 | 329 | 0.0 | 0.0 | 0.00 | 0.00 | 0.00 | 78 | 1021.0 |
| 20260502194517 | 8 | 329 | 0.0 | 3.2 | 0.00 | 0.00 | 0.00 | 77 | 1020.9 |
| 20260502193023 | 9 | 329 | 0.0 | 1.6 | 0.00 | 0.00 | 0.00 | 75 | 1020.9 |
| 20260502191526 | 10 | 333 | 0.0 | 0.0 | 0.00 | 0.00 | 0.00 | 74 | 1020.9 |
| 20260502190013 | 10 | 348 | 0.0 | 3.2 | 0.00 | 0.00 | 0.00 | 71 | 1020.8 |